Temp_Advection
nan nan nan nan nan nan nan nan nan nan nan nan nan nan nan nan nan nan nan nan nan nan
nan -0 0 1 1 1 0 0 0 -0 -0 -0 -1 -1 -1 -0 -0 -0 -0 -0 -0 nan
nan 0 1 0 0 0 -0 0 -0 -0 0 0 -0 -0 -0 -0 -0 -0 -0 -0 -0 nan
nan 1 0 0 0 -0 -0 -0 -0 -0 0 0 0 0 -0 0 -0 -0 -0 -0 -0 nan
nan 0 -0 0 -1 -0 -0 -0 -0 0 0 0 0 0 0 0 0 0 -0 -0 -0 nan
nan -1 -0 -0 -0 0 0 0 0 1 0 0 0 0 0 0 0 0 0 0 0 nan
nan -0 0 -0 0 1 0 0 0 0 1 0 0 0 0 0 0 0 0 0 0 nan
nan 1 1 1 1 0 0 1 0 1 0 0 0 0 0 0 0 0 0 0 0 nan
nan 1 1 0 0 0 1 0 0 0 0 0 0 0 0 0 0 0 0 0 0 nan
nan 1 0 -0 0 1 1 0 0 0 1 0 0 -0 -0 0 0 0 0 0 0 nan
nan 0 -0 -0 1 1 0 -0 0 1 0 0 -0 -0 0 1 1 1 0 0 0 nan
nan 1 -0 0 1 1 0 0 1 1 0 0 -0 0 1 1 1 1 0 0 0 nan
nan 0 1 1 1 1 0 1 1 1 0 0 -0 0 1 1 1 1 0 0 0 nan
nan nan nan nan nan nan nan nan nan nan nan nan nan nan nan nan nan nan nan nan nan nan
Wind_Speed
30 27 22 21 23 20 18 18 20 21 21 23 23 17 16 15 14 16 16 18 12 14
31 26 22 22 21 19 18 18 19 20 20 19 21 21 20 18 19 18 19 18 19 14
28 27 23 25 22 22 21 19 21 19 18 19 18 18 19 18 19 17 17 15 16 13
30 29 27 26 24 22 21 20 19 19 19 19 18 18 17 16 16 15 16 16 15 12
32 32 31 27 27 22 22 20 19 19 19 19 19 18 16 16 17 17 16 15 14 13
36 36 32 29 27 23 23 21 21 20 20 20 19 18 17 17 17 16 16 14 14 13
39 37 32 30 28 25 24 23 22 21 21 20 20 18 19 18 18 18 17 16 15 14
39 37 34 31 29 26 25 24 23 22 22 22 21 20 20 19 19 19 19 18 17 16
38 37 34 32 30 28 27 26 24 24 24 24 23 21 21 20 20 20 19 19 18 15
38 37 35 35 32 31 30 28 26 25 26 25 24 23 22 20 20 20 19 20 17 16
36 39 39 36 34 33 31 30 28 28 27 25 27 25 23 22 22 21 20 20 17 18
39 41 42 39 36 34 33 32 31 30 28 27 28 27 24 25 24 22 21 21 19 20
40 36 39 38 37 35 32 32 31 30 30 28 28 27 26 28 28 25 23 22 21 21
37 36 34 35 36 36 33 33 32 30 29 29 30 28 27 30 30 27 25 25 25 23
Wind_Direction
193 197 192 188 185 188 191 193 193 191 187 185 182 182 187 201 191 196 191 196 183 215
198 194 191 185 192 197 199 204 193 188 193 195 194 195 192 195 184 198 205 207 201 215
195 192 191 190 194 197 204 200 193 193 194 193 192 191 192 198 198 202 203 195 196 205
193 191 194 198 197 201 201 199 194 195 194 192 191 190 193 195 194 189 188 184 189 189
193 192 200 197 198 202 201 198 196 196 194 191 191 189 189 189 188 187 187 186 186 186
193 198 200 199 201 201 200 198 197 196 195 193 193 192 186 191 190 189 191 189 190 191
198 202 201 201 204 202 201 201 200 198 197 197 197 194 192 194 194 194 192 191 193 193
199 202 201 203 205 202 203 203 203 201 199 201 199 197 199 200 200 198 197 196 198 202
198 201 201 203 206 205 204 204 204 204 206 203 200 202 207 208 203 205 204 202 207 203
201 200 202 205 207 207 205 204 206 208 210 207 202 207 211 210 208 209 207 211 209 206
203 201 206 208 209 209 207 207 210 211 213 209 208 212 213 210 209 211 211 216 211 215
212 204 207 209 208 210 209 210 213 214 214 214 214 215 213 207 207 211 213 217 215 220
203 210 211 210 208 210 212 215 215 216 218 219 220 217 213 207 209 210 213 216 220 225
208 212 212 210 210 213 213 215 216 217 219 220 224 220 215 209 209 213 217 219 221 224
Height
1532 1536 1539 1543 1546 1550 1553 1555 1559 1561 1564 1568 1571 1574 1577 1580 1582 1585 1587 1589 1591 1591
1528 1532 1536 1541 1544 1548 1551 1553 1556 1559 1561 1565 1568 1571 1574 1577 1579 1582 1584 1585 1587 1589
1525 1530 1535 1539 1542 1545 1547 1550 1553 1555 1559 1562 1566 1568 1570 1574 1576 1578 1580 1583 1585 1586
1522 1528 1533 1536 1539 1542 1545 1548 1550 1552 1556 1559 1562 1565 1567 1571 1574 1576 1579 1581 1582 1584
1519 1524 1528 1533 1536 1539 1543 1546 1548 1550 1554 1557 1560 1562 1565 1569 1572 1574 1577 1579 1581 1582
1515 1519 1525 1530 1533 1536 1540 1544 1545 1548 1552 1555 1559 1560 1563 1566 1570 1573 1576 1578 1580 1582
1510 1515 1521 1525 1529 1533 1537 1540 1543 1546 1550 1553 1556 1559 1561 1564 1568 1571 1574 1575 1578 1581
1506 1511 1517 1521 1525 1529 1534 1538 1541 1544 1547 1551 1554 1557 1558 1562 1566 1569 1571 1573 1575 1578
1501 1507 1512 1516 1521 1525 1530 1534 1537 1540 1544 1548 1551 1554 1556 1560 1563 1567 1569 1571 1573 1576
1496 1502 1507 1511 1516 1520 1525 1529 1533 1537 1540 1545 1547 1550 1553 1557 1560 1563 1566 1569 1572 1574
1490 1496 1501 1506 1510 1516 1521 1524 1528 1532 1536 1542 1544 1546 1550 1554 1557 1560 1563 1565 1569 1570
1481 1489 1493 1499 1505 1511 1515 1520 1524 1528 1532 1536 1539 1543 1547 1551 1554 1556 1560 1562 1565 1566
1476 1484 1488 1495 1501 1506 1512 1516 1520 1525 1529 1532 1535 1539 1543 1547 1550 1553 1556 1559 1561 1563
1474 1483 1487 1492 1498 1503 1507 1512 1516 1520 1524 1528 1530 1534 1539 1542 1545 1549 1552 1554 1556 1558